User: anonymous   Login
Location: Godiavel Galaoual
(15.2485°N, 12.6604°W)
Time: 08:39:30
(UTC+00:00)
Language:

Cosmos 1733 Rocket - Orbit

View from above orbital plane
View from above orbital plane
View from above satellite
View from above satellite

Ground track
Ground track

The orbit data is extracted from the following two-line orbital elements,

1 16612U 86018B   20157.83302825 +.00000080 +00000-0 +65877-5 0  9991
2 16612 082.5164 358.7250 0017931 168.0927 202.6929 14.84261735731246
Epoch (UTC): 05 June 2020 19:59:33
Eccentricity: 0.0017931
inclination: 82.5164°
perigee height: 603 km
apogee height: 628 km
right ascension of ascending node: 358.7250°
argument of perigee: 168.0927°
revolutions per day: 14.84261735
mean anomaly at epoch: 202.6929°
orbit number at epoch: 73124

The dashed part of the orbit path shows where the satellite is in the earth's shadow,  

DLR